Location: Austin
(30.3000°N, 97.7500°W)
Time: 06:26:59
(UTC-06:00)

USA 276 - Pass Details

Date: 03 March 2026
Orbit: 366 x 369 km, 50.0° (Epoch: 12 July)

Event Time Altitude Azimuth Distance (km) Brightness Sun altitude
Rises 19:32:57 0° 216° (SW) 2,161 6.4 -14.1°
Reaches altitude 10° 19:35:04 10° 212° (SSW) 1,297 5.1 -14.5°
Maximum altitude 19:37:54 51° 135° (SE) 425 1.9 -15.1°
Enters shadow 19:38:19 45° 100° (E) 458 2.0 -15.2°
